Theta_e
336 336 338 339 345 347 346 347 349 350 350 349 348 346 343 343 341 342 347 347 344 343 342 341 342 344 346 344 342 338 338 338 333 336 338 341 340 341 344 347 348 347 348
337 339 340 340 341 346 350 351 352 350 352 353 349 347 345 345 344 341 342 347 345 344 341 340 342 346 345 345 343 339 336 336 337 333 334 339 339 340 342 341 346 348 347
338 339 341 343 343 344 347 350 351 351 352 350 350 348 349 347 344 345 348 347 345 345 340 339 341 340 341 342 344 342 341 341 337 336 335 339 341 343 340 341 342 345 347
340 340 341 344 345 346 346 347 347 347 347 349 349 350 350 351 348 348 349 348 346 343 341 339 342 341 341 340 341 342 341 340 337 337 339 340 339 341 341 338 338 341 343
346 345 344 343 344 345 343 342 342 348 347 344 344 348 350 349 352 350 347 347 342 338 341 338 336 339 345 342 343 342 341 340 338 337 335 334 334 335 338 339 339 339 340
339 337 338 339 340 340 340 341 342 342 342 343 341 345 348 351 341 340 346 342 340 341 340 340 335 339 342 344 343 343 343 340 337 334 334 332 332 335 337 338 339 334 333
333 332 332 332 332 331 333 335 335 333 336 336 339 341 342 345 334 339 344 343 338 338 338 335 336 340 340 344 342 340 340 339 342 342 339 337 333 335 335 334 336 336 335
328 328 328 326 325 326 328 327 326 327 328 329 329 331 332 332 328 332 340 341 340 338 337 334 333 335 339 341 339 337 340 340 340 343 344 342 342 343 340 339 338 338 340
324 324 323 322 321 323 321 320 321 321 322 322 324 326 318 318 324 327 333 338 337 337 339 338 337 338 330 334 339 339 340 342 341 335 337 338 337 338 339 339 338 335 334
322 324 322 322 323 321 319 320 320 322 321 323 322 319 320 315 320 321 327 332 334 334 334 336 331 331 323 325 331 334 336 337 338 339 339 335 335 339 337 339 341 338 337
322 323 323 323 323 321 319 320 321 317 315 314 316 317 318 317 315 318 319 319 322 325 327 329 332 326 319 317 320 328 332 334 335 333 333 334 337 340 340 340 339 340 339
323 323 322 323 324 324 320 318 315 314 313 312 312 313 315 315 318 316 316 318 320 316 316 318 318 316 313 314 317 319 320 324 327 326 326 327 328 331 335 340 342 342 343
321 320 322 323 320 320 319 316 313 313 313 312 312 311 312 315 315 316 315 316 316 313 314 315 315 313 312 315 317 318 320 319 322 325 327 327 328 331 333 334 335 337 340
316 317 317 316 315 316 317 316 313 312 311 312 312 311 311 313 314 311 309 308 311 310 310 311 315 316 317 317 317 319 321 322 327 327 328 331 334 333 333 336 335 337 336
316 315 314 314 313 313 314 314 314 313 312 313 312 311 311 312 311 302 301 305 305 305 307 312 314 315 318 319 319 320 322 323 321 322 325 326 327 328 331 334 335 334 332
314 313 313 313 312 312 313 314 312 308 307 306 305 309 312 307 302 299 299 301 302 303 311 312 315 317 317 317 317 317 319 321 321 322 321 321 321 323 323 325 328 329 329
314 313 313 313 313 313 312 312 312 314 307 303 302 303 305 303 299 298 300 302 302 307 308 309 313 317 318 319 316 317 316 318 317 317 318 318 319 319 319 319 321 321 322
314 313 313 313 313 313 313 313 313 312 308 309 307 306 302 301 297 297 300 305 307 307 304 304 304 306 310 312 311 311 312 312 311 311 313 313 313 314 314 314 316 316 316
315 314 313 312 312 312 311 310 313 313 307 305 304 304 305 303 302 301 303 306 305 305 304 303 303 303 307 307 306 305 305 304 304 304 305 307 309 310 311 312 314 310 311
314 317 314 311 311 309 306 309 310 307 305 303 303 303 303 305 306 305 306 306 305 305 305 305 305 304 303 304 304 302 301 299 298 299 301 307 308 308 308 310 312 312 314
313 314 315 309 309 307 303 303 304 305 306 306 305 304 303 303 305 306 305 304 305 306 305 306 306 306 305 305 304 303 301 299 297 297 298 303 306 306 309 310 311 312 312
311 313 309 306 306 305 305 304 303 303 302 302 303 304 302 303 302 302 304 306 306 306 305 305 306 307 307 306 308 304 299 296 296 295 296 301 302 305 306 307 308 310 311
309 308 307 306 305 306 305 304 303 303 303 303 303 304 303 302 302 302 303 304 305 304 304 304 305 306 306 307 305 299 295 293 293 292 295 300 301 302 304 304 306 308 310
310 309 307 306 305 303 303 303 304 302 304 304 304 304 302 301 302 303 304 304 304 305 304 304 303 305 305 304 297 295 294 292 289 290 294 295 296 298 301 303 305 308 311
310 311 308 304 304 303 304 304 304 305 304 304 304 302 301 301 303 303 303 304 304 305 304 304 302 303 300 297 296 294 291 287 287 288 288 289 293 297 300 304 307 309 309
309 310 306 304 304 306 305 304 305 304 303 304 302 300 301 301 301 301 301 301 303 304 303 303 301 301 298 299 297 291 285 285 286 284 285 286 291 298 303 305 306 305 307
Wind_Speed
8 6 6 8 8 8 8 9 9 8 10 10 8 7 6 8 7 7 8 6 8 8 7 7 8 6 5 4 4 3 4 4 4 3 2 1 4 6 5 7 9 10 9
10 7 10 8 7 9 11 11 7 8 8 8 7 8 7 8 7 9 9 9 10 9 9 6 7 5 8 5 5 6 5 5 4 5 2 3 6 6 5 6 7 7 8
7 9 10 10 10 14 12 10 7 6 7 7 7 9 10 10 8 10 10 10 8 8 3 5 6 5 7 4 6 6 5 4 5 4 4 3 4 2 3 4 4 6 5
7 7 8 7 7 7 6 6 6 6 7 8 9 10 8 8 7 8 9 7 3 4 6 6 9 7 9 6 5 6 5 5 4 6 4 4 4 4 3 3 4 4 6
7 6 4 2 2 3 3 4 5 3 4 4 5 6 5 5 4 6 5 6 7 12 15 20 17 13 13 7 4 5 5 6 4 5 4 4 4 4 5 3 4 2 3
9 9 7 8 7 6 6 5 5 5 6 5 4 4 4 3 6 2 6 6 10 12 12 13 7 6 6 11 15 15 10 7 6 5 4 5 4 3 3 4 4 3 4
8 7 7 7 7 6 5 6 6 6 5 7 7 7 6 7 13 6 8 5 8 9 9 5 1 2 4 5 6 10 9 11 12 6 8 5 4 6 5 4 5 6 10
7 7 6 6 6 5 6 6 5 4 5 4 5 6 6 6 11 9 2 1 3 4 5 5 4 5 6 6 6 6 7 7 9 9 10 7 9 5 7 7 7 7 8
6 6 6 6 5 4 5 4 4 4 4 4 3 6 7 7 14 12 4 3 3 4 3 3 4 3 3 6 6 7 8 9 7 12 11 13 11 11 7 0 6 6 8
5 5 5 5 5 5 4 4 2 3 5 5 6 6 8 7 13 14 10 4 5 4 5 5 7 6 4 4 2 4 5 6 4 5 3 7 10 11 15 10 8 9 7
4 5 5 5 5 5 4 3 4 5 6 6 6 5 5 6 7 11 10 5 4 4 4 3 3 8 9 7 5 4 5 5 5 4 4 4 4 5 6 7 10 9 9
5 5 4 4 3 3 6 4 5 6 6 6 6 5 4 5 5 7 8 6 6 3 4 3 4 9 10 10 6 9 10 7 3 4 3 4 4 5 5 6 7 9 9
5 4 3 5 5 4 6 5 4 5 5 4 4 4 4 4 4 8 8 8 6 3 3 7 11 9 8 6 7 8 6 2 3 3 5 5 4 6 6 5 6 9 11
7 7 5 6 5 5 3 4 4 3 3 3 4 3 2 3 5 5 5 5 7 5 6 5 6 5 4 4 5 5 4 2 2 5 5 5 6 5 6 6 6 7 7
7 5 5 4 4 3 2 3 2 1 2 2 1 2 4 4 4 4 3 4 4 4 5 3 5 5 7 7 7 6 5 4 4 4 4 6 6 6 6 6 6 7 7
6 4 3 3 2 2 3 3 6 5 7 7 3 3 2 3 5 7 7 8 5 7 3 4 6 7 8 7 7 6 6 9 8 6 5 4 5 6 5 6 5 7 8
7 5 4 3 3 3 3 4 5 4 9 9 7 8 9 6 9 8 8 7 10 6 6 5 5 6 6 6 6 6 7 7 8 8 7 6 7 8 9 7 6 6 6
6 7 4 3 3 3 4 4 3 4 3 1 4 4 6 8 7 8 6 4 4 5 3 3 4 4 5 5 5 5 5 6 6 7 7 8 9 9 9 9 8 9 9
6 4 4 3 3 4 4 4 4 4 3 1 2 2 3 3 5 5 4 3 1 2 2 1 1 2 1 3 3 4 4 4 4 5 6 8 8 8 9 9 10 11 10
5 9 5 4 3 4 4 5 4 3 2 1 1 2 3 3 2 1 1 1 1 1 2 2 2 1 1 1 2 3 4 4 5 4 5 7 6 6 7 9 9 10 9
4 5 8 4 4 3 4 4 4 3 2 2 3 3 4 2 3 3 3 3 3 3 3 3 3 3 3 3 2 3 4 5 4 5 6 8 7 7 8 8 9 9 10
5 5 4 5 4 3 3 3 3 3 2 1 3 3 4 2 3 3 4 5 4 4 4 4 4 4 4 3 3 3 4 5 5 4 5 8 9 8 8 8 9 9 9
5 5 4 3 3 5 3 2 2 2 1 2 3 3 3 3 4 4 5 5 4 4 3 4 4 3 2 3 2 1 3 5 4 4 6 8 8 8 8 9 9 9 9
5 6 5 4 4 4 4 4 2 3 2 1 1 1 3 3 4 5 5 4 4 5 3 4 3 4 2 2 1 2 4 4 4 5 7 8 9 9 8 9 9 11 9
5 5 5 5 5 4 4 4 3 3 2 1 1 2 3 3 2 4 4 4 5 5 5 5 4 4 3 3 4 5 6 7 7 7 4 7 10 12 10 9 9 10 11
5 6 5 5 4 4 5 4 4 4 3 3 2 3 3 2 4 4 5 5 5 5 6 5 4 4 4 4 5 9 9 7 6 6 5 5 7 8 7 10 12 9 11
Wind_Direction
178 207 201 222 237 233 220 233 223 209 217 232 236 235 216 224 218 223 226 214 214 219 211 212 225 211 222 206 190 189 182 167 211 296 269 287 225 226 249 215 221 217 220
177 185 206 216 224 241 242 236 222 206 227 231 222 231 234 231 213 223 228 225 221 221 222 210 227 209 229 218 189 194 192 191 184 244 270 269 226 218 244 233 226 221 215
174 186 217 221 206 224 230 239 233 218 228 241 231 229 234 231 211 224 221 218 217 232 215 241 249 223 253 222 204 194 188 188 202 195 234 237 259 245 270 255 222 228 216
155 181 206 205 203 213 227 234 240 233 244 245 239 235 231 229 215 222 232 225 211 99 41 327 283 245 234 228 216 215 200 200 175 207 222 238 218 239 211 223 266 215 226
112 106 84 121 159 151 176 221 250 285 302 299 258 253 254 245 231 222 215 168 157 121 145 219 245 240 226 240 217 231 213 210 193 210 221 200 213 208 203 199 225 268 257
88 81 67 64 63 58 57 51 52 34 9 2 8 21 32 355 334 291 168 169 161 178 202 229 242 241 212 238 234 232 217 214 217 193 214 220 229 225 235 195 189 180 266
90 81 72 64 60 49 49 52 43 34 27 26 19 22 28 31 0 15 174 166 178 211 239 257 280 342 303 269 258 238 235 236 228 209 227 211 224 203 180 220 224 242 252
87 85 79 76 68 55 54 45 36 25 27 11 11 18 35 12 352 3 2 225 225 217 225 237 225 235 244 246 255 262 251 249 241 236 240 243 242 219 211 227 239 250 268
93 93 89 89 89 81 58 41 30 41 32 32 31 65 65 29 17 21 13 8 345 326 310 251 231 256 329 254 248 263 269 269 267 246 248 251 250 256 239 267 254 244 259
104 111 107 104 99 76 62 60 34 63 71 60 65 62 54 36 17 25 31 27 21 359 352 5 47 106 18 358 181 229 252 258 252 279 261 262 257 257 259 237 245 242 240
123 108 91 86 92 72 46 46 92 71 63 53 58 33 35 38 22 24 25 36 19 3 16 19 358 350 348 321 275 266 247 292 287 274 276 273 261 251 249 222 218 225 238
89 84 68 61 54 82 93 80 69 76 73 58 53 33 14 12 11 10 20 32 23 27 350 331 319 329 311 301 274 252 269 269 260 271 273 270 250 245 253 255 243 233 232
86 79 85 83 74 84 130 111 78 73 76 64 63 46 3 346 354 354 352 9 19 16 339 314 313 310 306 309 295 288 276 270 293 293 292 286 258 255 260 256 248 250 259
99 93 90 94 81 69 101 104 106 100 75 66 54 46 3 355 7 360 1 359 12 33 5 345 337 335 326 311 346 359 8 353 318 323 297 297 301 283 263 239 251 258 257
110 110 107 103 100 97 89 89 98 206 148 114 114 69 42 22 5 360 17 22 6 348 327 357 15 8 12 6 1 358 356 7 359 333 334 332 326 325 305 294 284 274 265
118 123 136 113 93 91 106 69 29 46 88 79 106 106 46 82 69 72 60 49 22 350 45 28 23 18 17 6 4 357 2 1 351 340 334 322 319 321 321 319 309 304 288
133 141 127 123 126 127 103 116 118 23 80 77 76 90 86 87 48 56 66 51 23 39 54 31 22 12 6 15 4 357 356 355 346 349 341 337 332 330 330 317 317 316 320
142 142 140 140 125 110 105 135 131 125 109 8 13 87 107 106 77 46 28 56 30 26 57 44 24 14 17 8 359 355 344 347 350 340 334 332 330 324 322 318 316 317 314
139 142 144 123 97 96 102 93 116 134 123 102 331 0 17 44 85 61 34 71 75 34 27 52 102 57 358 349 348 338 332 323 319 321 337 333 328 323 318 316 311 309 303
149 147 132 121 112 98 90 106 121 120 138 170 310 284 321 19 1 313 285 241 299 262 260 261 272 218 216 268 310 315 313 315 314 309 309 319 314 312 308 312 312 308 303
149 142 139 116 126 123 115 115 126 144 181 248 266 261 268 245 258 250 257 258 257 270 282 263 249 242 244 257 283 316 314 304 302 301 311 313 312 307 307 301 299 300 298
158 151 140 142 140 141 140 132 141 137 125 11 326 320 9 24 307 283 276 269 271 264 264 266 271 240 219 224 249 288 301 299 304 306 304 318 313 302 301 300 303 300 299
148 147 149 144 139 121 115 112 107 93 82 5 341 347 344 323 325 314 302 279 260 281 290 280 273 275 223 204 175 261 297 294 291 291 301 308 304 298 298 293 296 301 299
152 159 156 151 151 150 158 161 153 129 130 89 354 309 324 330 324 319 314 311 295 284 282 288 272 276 221 174 249 292 281 273 277 271 281 296 293 297 294 291 291 295 301
164 166 157 162 173 176 168 154 159 146 159 190 278 322 303 311 321 324 324 322 303 295 301 295 255 243 234 248 262 286 283 273 266 275 267 270 280 285 280 283 294 305 305
166 162 158 165 181 179 165 167 189 181 193 213 240 252 252 271 298 310 319 320 312 300 288 279 250 246 282 298 301 302 295 300 310 289 285 275 282 289 291 298 305 306 299